Content
SEND FEEDBACK

Daily
Averages
Monthly
Summary
Mexico

XULA, QUINTANA ROO


Home > North America > Mexico > Quintana Roo
Elevation: 85 feet     Latitude: 18 34N     Longitude: 088 27W

WEATHER
 
SELECT A DAY
Number of Records: 122,498;   Date Range: 1/1/95 - 9/21/14
 
SHARE

PRINT THIS DATA

[ ← Previous Day ]
WEATHER ALMANAC - OCTOBER 15, 2013
[ Next Day → ]
[ °C ]   °F
Weather ElementAverageHighLow
Temperature83.8 °F91 °F (12:50 pm)75 °F (3:45 am)
Dewpoint73.9 °F77 °F (12:40 pm)68 °F (6:40 am)
Humidity70.5 %95 % (3:45 am)44 % (12:50 pm)
Barometer29.89 in29.95 in (9:40 am)29.83 in (4:44 pm)
Wind Speed3 mph8.1 mph (12:40 pm)
Weather ElementAverage
Visibility6.6 mi
Wind DirectionENE (75 °)

Weather ElementTotal
Precipitation---
Cooling Degree Days18 (Base 65)
Growing Degree Days33 (Base 50)
Averaged from 20 records on October 15, 2013
WEATHER CONDITIONS BREAKOUT
WIND DIRECTION BREAKOUT
WEATHER BY HOUR - OCTOBER 15, 2013
[ °C ]   °F
Local TimeTemperatureDewpointHumidityBarometerVisibilityWind DirectionWind SpeedGust SpeedPrecipitationEventsConditions
3:45 AM75.0 °F74.0 °F95 %29.89 in5.0 miWNW (300°)2.2 mphScattered Clouds
6:40 AM75.2 °F68.0 °F78 %29.89 in7.0 miCalmPartly Cloudy
6:45 AM76.0 °F73.0 °F87 %29.91 in6.0 miWNW (300°)2.2 mphScattered Clouds
7:45 AM75.2 °F68.0 °F78 %29.91 in7.0 miCalmPartly Cloudy
8:40 AM78.8 °F69.8 °F74 %29.92 in7.0 miCalmPartly Cloudy
9:40 AM80.6 °F71.6 °F74 %29.95 in7.0 miCalmPartly Cloudy
9:50 AM84.0 °F76.0 °F70 %29.95 in6.0 miWNW (290°)4.5 mphScattered Clouds
10:40 AM84.2 °F73.4 °F70 %29.93 in7.0 miNNE (30°)6.9 mphScattered Clouds
11:42 AM86.0 °F75.2 °F70 %29.92 in7.0 miNNE (20°)5.8 mphScattered Clouds
12:40 PM87.8 °F77.0 °F70 %29.91 in7.0 miNNE (30°)8.1 mphScattered Clouds
12:50 PM91.0 °F72.0 °F44 %29.91 in6.0 miENE (60°)4.5 mphScattered Clouds
1:45 PM87.8 °F77.0 °F70 %29.86 in7.0 miNNE (20°)5.8 mphScattered Clouds
2:40 PM89.6 °F77.0 °F66 %29.85 in7.0 miCalmScattered Clouds
3:40 PM87.8 °F75.2 °F66 %29.85 in7.0 miNorth (10°)6.9 mphMostly Cloudy
3:50 PM89.0 °F73.0 °F51 %29.85 in6.0 miWNW (300°)4.5 mphPartly Cloudy
4:44 PM87.8 °F75.2 °F66 %29.83 in7.0 miCalmScattered Clouds
5:40 PM87.8 °F75.2 °F66 %29.84 in7.0 miCalmMostly Cloudy
6:40 PM86.0 °F75.2 °F70 %29.87 in7.0 miCalmScattered Clouds
6:50 PM85.0 °F76.0 °F67 %29.88 in6.0 miENE (70°)4.5 mphMostly Cloudy
9:50 PM82.0 °F76.0 °F78 %29.94 in5.0 miENE (70°)4.5 mphScattered Clouds
Hourly data recorded from MMCM, located miles away from Xula, Quintana Roo







STORIES FROM OUR PARTNERS